RH
28 25 23 19 24 24 22 27 48 42 60 55 63 75 91 84 72 50 38 38 54 85 99 100 97 96 100 100 100 92 82 86 82 69 66 42 47 48 52 51 33 26 30 43 50
16 14 14 15 19 22 24 20 27 39 46 55 54 46 70 90 87 75 75 60 41 46 53 63 97 96 97 86 71 84 91 77 60 48 47 50 53 52 44 37 37 39 29 25 32
9 10 10 12 16 21 22 31 34 24 49 63 78 53 51 70 93 93 78 84 77 50 43 36 35 49 65 81 77 57 57 65 65 56 55 39 39 40 40 46 33 27 36 28 20
11 13 14 14 14 16 18 24 29 28 24 39 62 80 56 77 70 92 100 94 81 94 91 75 36 25 27 35 41 36 35 40 45 52 42 35 43 44 31 35 27 22 30 35 26
2 3 10 21 19 20 20 23 24 33 24 24 42 57 92 62 78 80 91 88 90 77 72 70 72 43 25 18 19 26 30 29 33 42 41 33 37 43 35 27 28 20 23 34 28
1 1 1 3 10 14 18 20 26 42 39 34 30 54 70 87 55 63 84 91 89 89 78 72 66 56 41 27 17 13 14 14 25 29 26 25 30 35 30 19 21 26 17 20 27
1 2 1 2 2 2 4 11 19 37 47 47 45 37 53 56 66 63 81 98 100 93 78 67 61 49 44 38 26 16 13 10 10 10 9 8 8 12 12 12 12 16 17 12 18
2 1 1 1 2 2 2 2 6 22 32 44 62 53 41 53 68 67 76 74 73 84 86 72 59 57 46 35 26 19 16 13 10 8 7 6 7 6 5 6 8 9 12 10 8
2 1 1 1 1 2 2 2 2 9 29 35 49 62 58 50 47 58 56 63 71 73 81 72 72 56 44 34 24 19 15 11 11 9 7 7 7 6 4 4 5 6 6 7 7
2 2 1 2 2 2 2 2 2 4 11 21 43 53 52 48 30 26 54 61 73 73 70 72 57 56 38 31 27 24 24 24 20 10 8 6 6 5 4 2 3 4 4 5 5
2 2 2 2 2 2 2 2 2 3 3 4 7 35 57 52 40 35 32 40 47 52 62 53 47 45 43 36 31 33 36 29 18 9 6 5 5 4 3 2 2 2 3 3 4
2 2 2 2 2 2 2 2 2 2 3 3 4 5 13 29 32 23 21 18 25 34 43 45 44 45 43 42 39 36 27 14 11 4 4 5 4 3 3 2 2 2 2 3 3
9 3 2 2 3 2 2 3 3 3 3 3 4 6 8 13 14 14 17 18 21 25 29 28 33 35 36 30 25 18 11 8 8 8 5 4 4 2 2 2 2 2 2 2 2
5 10 4 2 2 3 3 3 4 4 4 4 4 6 7 8 9 9 11 13 16 16 19 26 28 28 18 13 12 10 11 8 7 6 4 4 4 2 2 2 2 2 2 2 2
4 5 11 5 3 2 3 4 4 5 6 6 7 9 12 11 11 11 14 17 21 24 27 22 12 10 10 9 8 6 6 6 5 4 3 3 3 2 2 2 2 2 2 2 2
7 5 5 7 8 4 3 3 4 5 6 6 8 8 9 9 10 11 10 10 10 9 8 8 8 7 6 6 6 7 8 6 5 5 4 4 3 3 3 3 2 2 2 2 2
15 8 6 4 4 9 5 4 4 3 4 4 5 6 6 7 7 7 7 8 8 8 7 7 7 8 8 10 10 10 8 10 8 7 5 4 4 4 3 2 2 2 2 2 2
19 15 9 5 4 4 5 10 5 5 6 5 4 4 4 4 4 5 5 5 6 8 9 9 10 10 11 13 13 12 10 9 8 7 6 5 5 4 3 3 2 2 2 2 2
22 20 16 9 5 4 4 4 5 12 9 6 6 6 6 7 7 7 7 8 9 11 12 12 14 13 11 14 13 11 14 14 12 9 8 7 6 5 4 4 3 3 3 2 2
35 25 20 14 8 4 4 4 4 4 7 10 12 10 8 8 8 9 10 12 11 12 12 13 15 16 19 16 16 15 16 16 14 9 9 6 6 4 3 3 3 3 3 3 3
28 33 28 18 13 14 8 5 4 3 3 5 7 12 16 20 21 19 18 21 23 22 20 20 22 16 13 13 13 14 17 20 27 24 19 14 11 10 8 10 8 4 4 3 2
29 26 32 29 19 20 18 10 6 4 3 3 4 4 6 8 9 10 10 11 10 10 10 10 9 12 14 16 27 29 20 36 45 39 34 34 29 20 23 22 22 21 13 14 9
26 33 26 32 34 27 23 20 16 8 6 4 5 6 6 7 9 10 10 10 11 11 12 16 18 24 28 39 63 46 49 49 51 39 34 44 47 36 30 43 51 43 38 39 35
24 25 30 28 33 33 34 32 31 24 15 9 7 6 6 8 10 10 15 18 20 25 28 29 31 40 43 53 63 65 65 65 63 60 56 43 49 53 62 58 66 84 89 100 98
22 23 26 34 28 33 32 34 38 41 37 27 17 11 10 9 10 15 18 24 26 30 36 43 45 40 38 40 43 50 58 45 56 68 66 72 65 66 54 61 69 83 89 100 100
26 20 22 25 30 38 32 35 35 43 44 46 44 34 24 21 17 15 13 15 19 30 45 50 51 50 51 52 56 53 63 63 57 50 72 82 55 61 68 60 59 90 86 100 100
38 41 29 22 23 36 43 34 33 35 41 52 54 54 48 37 31 28 25 22 20 17 18 25 36 44 46 49 50 52 69 68 65 38 47 56 61 63 68 66 62 68 73 90 100
Wind_Speed
91 94 89 81 78 83 90 102 102 102 99 96 92 88 82 77 77 78 85 91 94 101 101 103 101 102 101 100 98 98 94 95 93 87 84 84 82 79 76 73 69 65 64 66 64
93 89 87 88 83 77 80 86 96 105 105 102 98 95 90 84 83 81 77 76 81 92 99 103 105 101 102 104 102 99 97 97 96 91 87 86 86 83 79 78 76 71 68 68 69
74 81 80 79 79 84 78 82 86 96 110 107 104 101 96 92 86 85 82 78 77 81 87 95 100 106 106 106 106 103 99 99 97 93 92 89 89 87 82 81 84 79 73 69 71
61 66 66 72 75 78 78 78 79 85 96 112 109 105 101 97 96 90 86 84 82 79 78 78 86 92 102 104 107 105 103 104 103 97 94 92 92 91 88 85 88 88 80 72 71
50 54 58 66 69 76 80 80 81 79 89 93 112 108 106 104 101 96 93 91 89 88 86 84 83 83 87 92 99 97 103 106 105 105 99 99 101 102 95 95 92 91 87 80 75
38 38 38 52 67 73 75 78 78 83 81 88 90 109 112 111 110 102 98 94 91 90 88 86 85 85 85 85 88 92 96 100 104 107 106 106 108 109 109 101 98 96 92 87 80
24 25 30 38 55 63 66 73 78 84 88 84 85 91 108 115 110 103 98 96 93 92 93 90 90 90 89 89 88 87 88 90 93 98 100 101 104 107 109 107 101 99 96 90 89
21 16 18 28 40 50 54 55 66 77 84 88 90 92 93 106 116 110 105 104 101 96 96 96 94 94 93 92 90 89 90 90 87 91 91 91 90 99 102 103 100 99 98 92 89
27 17 8 12 23 32 38 42 48 63 80 82 89 94 94 95 104 112 109 106 104 101 100 98 97 97 97 97 94 93 90 88 88 85 85 88 84 93 99 98 94 95 95 96 94
41 27 15 3 8 17 24 30 37 53 73 78 88 95 97 96 91 93 102 106 106 104 103 102 102 99 98 98 96 93 91 89 91 88 83 83 79 83 94 95 86 90 94 97 89
55 39 26 16 10 4 6 20 35 49 62 69 75 88 95 95 87 87 88 92 96 102 103 102 101 101 100 97 96 95 94 93 91 83 77 77 68 75 92 89 80 84 86 87 87
69 51 35 28 19 17 13 7 22 37 45 52 58 69 79 84 84 82 77 71 72 79 83 87 85 85 89 92 88 84 85 79 77 70 64 65 67 75 85 78 72 74 75 78 80
79 69 50 39 32 25 23 17 10 17 25 31 46 55 61 67 68 63 63 60 60 60 61 60 63 63 65 70 72 74 69 64 62 63 60 61 62 69 72 62 59 64 67 68 69
84 78 70 53 42 35 29 23 16 9 6 5 11 34 44 46 49 49 51 52 50 47 47 48 51 56 64 66 62 54 53 53 51 52 48 47 54 54 51 49 48 55 58 58 58
90 82 75 68 57 43 37 30 24 18 13 9 7 6 6 15 22 24 29 29 33 37 43 49 51 48 46 43 41 40 40 39 40 40 40 39 43 39 42 39 41 48 52 53 60
98 84 76 66 62 54 46 38 30 25 20 17 13 14 15 19 21 24 26 29 33 32 30 29 31 32 31 31 31 29 30 29 30 29 29 32 34 33 37 37 36 43 50 54 58
105 94 79 71 62 55 50 45 39 30 26 23 20 17 16 14 14 17 18 18 19 21 23 23 24 23 22 19 18 20 18 20 22 25 23 26 26 26 29 30 33 38 42 45 48
100 102 91 75 66 61 51 46 44 39 32 26 23 21 20 18 17 17 16 16 14 14 16 15 15 12 11 12 13 14 15 14 15 17 18 18 19 19 21 23 26 29 32 35 38
92 97 96 86 73 65 58 52 44 38 36 33 31 28 26 22 19 17 15 14 14 12 11 11 11 11 11 13 12 11 10 9 11 12 12 13 14 15 17 18 20 23 26 27 28
87 87 85 87 84 78 74 55 46 39 34 32 32 30 28 25 23 20 18 16 14 13 13 13 12 12 12 12 11 9 8 10 9 8 8 8 9 11 12 13 17 20 22 24 27
88 85 82 81 85 92 72 62 53 45 39 34 29 27 26 26 24 22 21 18 16 15 13 12 11 11 11 10 7 10 10 8 7 7 5 5 8 9 9 11 13 14 17 21 25
105 84 79 80 82 84 86 76 63 54 46 41 37 34 30 27 23 22 19 17 15 15 13 14 14 14 13 14 13 11 10 11 13 11 9 9 4 7 4 7 8 6 9 14 17
116 105 85 78 77 76 77 80 80 67 56 50 47 47 45 44 42 38 35 33 32 28 26 25 23 22 21 18 17 12 14 17 16 10 8 8 6 8 7 10 12 9 10 14 14
106 111 114 83 74 71 71 73 77 79 74 62 51 47 46 47 45 44 46 42 37 35 31 28 27 24 20 17 15 13 11 13 11 10 10 3 4 14 15 16 16 15 19 17 19
99 102 109 109 82 71 66 64 65 69 72 72 68 61 55 49 45 44 44 42 42 40 34 31 28 20 18 11 9 6 7 3 11 14 11 8 7 11 8 16 13 17 23 27 27
95 97 102 103 104 83 69 64 60 61 61 63 65 66 63 60 55 50 46 41 39 37 36 31 28 25 15 12 12 8 5 5 7 8 16 13 7 7 10 8 12 21 22 30 31
89 93 98 95 98 91 85 69 60 57 54 56 56 58 59 59 56 55 53 50 47 42 36 30 26 25 21 17 15 15 5 7 6 4 9 9 7 14 10 9 8 24 20 31 36
Wind_Direction
274 276 275 273 264 257 252 246 239 237 236 238 237 236 237 239 240 241 240 240 241 241 240 239 240 241 244 243 244 249 251 253 256 254 254 252 252 252 250 249 248 247 241 241 240
272 274 272 269 266 260 254 251 246 239 234 234 235 235 234 236 238 239 239 241 242 241 241 242 240 242 244 245 245 247 250 252 253 252 251 251 252 251 252 251 247 244 243 240 241
272 267 267 264 262 258 253 248 249 243 237 231 231 234 232 233 235 238 238 238 240 241 243 244 244 244 243 244 246 249 248 250 251 251 251 251 251 251 250 251 248 247 244 240 240
267 266 263 258 255 255 255 248 247 247 244 235 231 232 232 233 233 235 237 237 239 240 245 247 247 246 246 247 248 248 250 249 250 250 249 249 251 253 251 249 247 246 244 244 240
273 261 252 256 252 250 248 247 245 244 240 241 235 233 231 232 232 232 234 235 237 239 241 244 246 248 249 247 247 247 248 248 249 249 249 250 251 252 252 247 248 247 244 245 246
286 276 256 245 249 247 248 245 241 237 235 238 240 235 233 233 232 231 234 236 239 240 242 243 245 248 251 252 251 250 249 249 249 250 250 250 251 252 251 249 245 246 245 245 246
297 277 264 249 247 249 245 242 239 236 236 237 238 240 235 234 235 232 233 237 238 241 242 243 246 247 249 251 253 254 254 253 251 250 251 252 250 250 250 249 246 245 246 245 243
334 302 274 252 244 245 246 242 237 236 238 234 232 237 238 235 233 233 234 235 237 239 242 244 245 246 248 251 253 255 256 257 256 254 252 251 252 253 249 247 245 247 246 248 246
8 355 322 267 247 243 242 238 236 231 234 232 229 233 234 235 233 234 234 236 237 240 243 245 247 249 252 253 255 257 258 260 260 257 253 252 251 252 251 247 246 245 247 248 246
17 17 13 351 248 242 233 225 218 217 225 228 229 228 230 233 236 237 235 235 237 240 243 245 247 250 253 255 258 260 263 263 262 258 254 252 249 250 251 248 246 245 245 247 246
22 28 29 33 50 60 226 219 205 208 218 221 223 225 228 233 235 236 235 236 238 240 244 246 250 253 255 258 260 262 261 261 260 257 251 250 253 252 249 248 244 244 245 247 247
30 31 37 44 58 80 88 141 205 208 215 219 217 218 224 227 230 232 235 238 240 243 246 249 255 256 257 258 257 255 256 257 257 255 254 255 250 245 249 246 244 245 247 247 248
38 36 36 47 54 65 91 113 153 200 217 218 212 211 217 220 224 226 231 234 236 239 241 243 244 246 246 247 250 250 254 258 258 257 253 250 250 246 249 252 247 248 247 248 249
35 37 39 44 54 64 75 90 105 119 122 139 192 215 218 223 223 225 227 230 233 235 238 242 243 243 241 243 250 257 255 253 253 255 252 249 249 248 253 254 247 246 246 245 245
33 34 34 38 44 55 65 73 85 95 102 114 126 139 178 215 230 223 226 228 232 232 234 233 235 242 246 247 247 246 245 245 243 245 249 250 253 253 254 249 241 238 240 239 238
35 33 36 36 39 47 58 67 75 83 95 108 122 142 159 175 185 192 200 206 213 220 228 231 229 229 230 230 231 234 236 239 244 249 251 250 250 253 251 250 245 239 239 239 239
33 35 36 36 39 43 51 59 67 73 85 94 102 116 132 145 159 173 186 197 202 207 210 215 217 218 221 224 229 232 236 245 246 248 249 254 255 247 248 244 240 240 240 238 237
32 34 35 39 39 42 44 48 60 67 69 74 85 101 120 132 142 149 156 172 178 189 195 199 207 208 200 200 211 220 229 234 245 250 252 256 257 255 251 245 241 239 241 240 237
31 35 35 36 40 46 43 41 45 53 65 72 76 79 87 97 103 111 122 135 143 141 144 151 166 178 175 185 189 197 204 221 233 241 244 245 250 249 248 245 244 241 242 240 237
32 34 36 37 42 42 43 45 48 47 53 60 71 75 78 80 86 93 95 102 109 124 133 140 150 155 164 178 165 163 169 195 210 236 236 255 262 265 269 258 252 250 244 241 235
30 32 31 36 40 46 43 42 47 54 58 61 68 74 81 86 88 92 98 105 110 116 121 127 144 152 146 135 145 159 161 166 173 178 203 229 246 263 260 250 246 250 240 239 228
27 31 31 31 39 43 44 47 48 53 60 68 72 75 80 81 81 83 88 93 92 95 109 113 108 110 108 109 111 130 141 156 167 175 172 181 220 228 211 212 238 224 220 208 214
23 28 29 29 33 39 44 44 47 51 54 63 71 76 78 83 84 87 90 92 91 92 94 97 98 103 108 109 130 144 153 166 176 187 193 184 191 183 180 170 160 176 185 174 169
24 25 25 29 29 31 38 45 46 46 50 54 59 67 74 77 80 82 80 77 81 82 84 88 84 91 103 114 132 151 170 175 190 183 191 179 195 196 168 162 159 158 156 140 123
17 20 24 25 29 28 31 36 44 49 48 49 50 54 59 61 68 72 72 72 73 75 78 73 72 76 77 82 88 111 146 162 189 191 208 211 211 202 184 158 169 183 166 140 139
12 12 19 25 26 29 28 30 33 39 47 50 48 48 51 54 57 62 64 66 68 68 68 69 69 74 83 84 52 74 138 235 230 236 231 227 262 228 237 222 191 188 189 170 163
8 9 11 17 23 29 29 29 27 31 38 41 46 47 48 51 55 56 56 58 59 60 62 64 66 72 74 85 74 79 107 2 323 348 275 18 314 260 241 260 256 205 196 196 173